Check out our new BloomSky Weather System.

Active alerts


No alerts


Thunder radar  blitzortung!


Rain radar more information rain snow radar


Visit our other weather sites:

Template documentation
and downloads

And another site



Weather Underground History page Text

Daily Summary for June 7, 2017 Units:  Metric    English   Both
« Previous Day
Next Day »
Daily Weekly Monthly Yearly Custom
  High: Low: Average:
Temperature: -17.8 °C 21.4 °C 27.2 °C
Dew Point: -17.8 °C 19.6 °C 21.6 °C
Humidity: Humidity % 46 % 74 %
Wind Speed: 0 km/h 0 km/h 2.6 km/h
Wind Gust: 0 km/h - -
Wind:- - WSW
Pressure: 0 hPa 1009.4 hPa -
Precipitation: 0.25 mm    
Historical Graphs
 
 
Tabular Data for June 7, 2017
Time Temperature Dew Point Pressure Wind Wind Speed Wind Gust Humidity Rainfall Rate (Hourly)
-17.8 °C -17.8 °C 0 hPa Calm     Humidity % 0 mm
00:02 23.1 °C 22.4 °C 1009.4 hPa Calm   1.6 km/h 96 % 0 mm
00:07 22.9 °C 22.2 °C 1009.4 hPa Calm   1.6 km/h 96 % 0 mm
00:12 22.9 °C 22.2 °C 1009.4 hPa Calm   1.6 km/h 96 % 0 mm
00:17 22.9 °C 22.2 °C 1009.4 hPa Calm   1.6 km/h 96 % 0 mm
00:22 22.9 °C 22.2 °C 1009.4 hPa Calm   1.6 km/h 96 % 0 mm
00:27 22.9 °C 22.2 °C 1009.4 hPa Calm   1.6 km/h 96 % 0 mm
00:34 22.9 °C 22.2 °C 1009.4 hPa Calm   1.6 km/h 96 % 0 mm
00:39 22.8 °C 22.1 °C 1009.4 hPa Calm     96 % 0 mm
00:44 22.8 °C 22.1 °C 1009.4 hPa Calm   1.6 km/h 96 % 0 mm
00:49 22.8 °C 22.1 °C 1009.4 hPa Calm   1.6 km/h 96 % 0 mm
00:54 22.8 °C 22.1 °C 1009.4 hPa Calm   1.6 km/h 96 % 0 mm
00:59 22.8 °C 22.1 °C 1009.4 hPa Calm   1.6 km/h 96 % 0 mm
01:04 22.8 °C 22.1 °C 1009.4 hPa Calm   3.2 km/h 96 % 0 mm
01:09 22.8 °C 22.1 °C 1009.4 hPa Calm   3.2 km/h 96 % 0 mm
01:14 22.7 °C 22 °C 1009.4 hPa Calm   3.2 km/h 96 % 0 mm
01:19 22.7 °C 22 °C 1009.4 hPa Calm   3.2 km/h 96 % 0 mm
01:24 22.7 °C 22 °C 1009.4 hPa Calm   3.2 km/h 96 % 0 mm
01:29 22.7 °C 22 °C 1009.4 hPa Calm   1.6 km/h 96 % 0 mm
01:34 22.7 °C 22 °C 1009.4 hPa Calm   1.6 km/h 96 % 0 mm
01:39 22.7 °C 22 °C 1009.4 hPa Calm   1.6 km/h 96 % 0 mm
01:44 22.6 °C 21.9 °C 1009.4 hPa Calm   1.6 km/h 96 % 0 mm
01:54 22.6 °C 21.9 °C 1009.4 hPa Calm   1.6 km/h 96 % 0 mm
01:59 22.4 °C 21.7 °C 1009.4 hPa Calm   1.6 km/h 96 % 0 mm
02:04 22.4 °C 21.7 °C 1009.4 hPa Calm   1.6 km/h 96 % 0 mm
02:09 22.4 °C 21.7 °C 1009.4 hPa Calm   1.6 km/h 96 % 0 mm
02:14 22.4 °C 21.7 °C 1009.4 hPa Calm   1.6 km/h 96 % 0.25 mm
02:19 22.3 °C 21.6 °C 1009.4 hPa Calm   1.6 km/h 96 % 0.25 mm
02:24 22.2 °C 21.5 °C 1009.4 hPa Calm   1.6 km/h 96 % 0.25 mm
02:29 22.1 °C 21.4 °C 1009.4 hPa NNW 1.6 km/h 1.6 km/h 96 % 0.25 mm
02:34 22.2 °C 21.7 °C 1009.4 hPa NNW 1.6 km/h 1.6 km/h 97 % 0.25 mm
02:39 22.3 °C 21.6 °C 1009.4 hPa Calm   1.6 km/h 96 % 0.25 mm
02:44 22.2 °C 21.5 °C 1009.4 hPa Calm   1.6 km/h 96 % 0.25 mm
02:49 22.2 °C 21.5 °C 1009.4 hPa Calm   1.6 km/h 96 % 0.25 mm
02:54 22.2 °C 21.5 °C 1009.4 hPa Calm   1.6 km/h 96 % 0.25 mm
02:59 22.1 °C 21.4 °C 1009.4 hPa NNW 1.6 km/h 1.6 km/h 96 % 0.25 mm
03:04 22.1 °C 21.4 °C 1009.4 hPa Calm   1.6 km/h 96 % 0.25 mm
03:09 22 °C 21.3 °C 1009.4 hPa Calm   1.6 km/h 96 % 0.25 mm
03:14 21.9 °C 21.4 °C 1009.4 hPa Calm   1.6 km/h 97 % 0 mm
03:19 22 °C 21.5 °C 1009.4 hPa Calm   1.6 km/h 97 % 0 mm
03:24 22.1 °C 21.6 °C 1009.4 hPa NW 1.6 km/h 1.6 km/h 97 % 0 mm
03:29 22.1 °C 21.6 °C 1009.4 hPa Calm   1.6 km/h 97 % 0 mm
03:34 22.1 °C 21.6 °C 1009.4 hPa Calm   1.6 km/h 97 % 0 mm
03:39 22.1 °C 21.6 °C 1009.4 hPa Calm   3.2 km/h 97 % 0 mm
03:45 22.1 °C 21.6 °C 1009.4 hPa Calm   3.2 km/h 97 % 0 mm
03:47 22.1 °C 21.6 °C 1009.4 hPa Calm   3.2 km/h 97 % 0 mm
03:52 22 °C 21.5 °C 1009.4 hPa Calm   1.6 km/h 97 % 0 mm
03:57 22.1 °C 21.6 °C 1009.4 hPa Calm   1.6 km/h 97 % 0 mm
04:02 22 °C 21.5 °C 1009.7 hPa Calm   1.6 km/h 97 % 0 mm
04:07 22 °C 21.5 °C 1009.7 hPa Calm   1.6 km/h 97 % 0 mm
04:12 22 °C 21.5 °C 1009.7 hPa Calm   3.2 km/h 97 % 0 mm
04:17 21.9 °C 21.4 °C 1010 hPa Calm   3.2 km/h 97 % 0 mm
04:22 21.9 °C 21.4 °C 1010 hPa Calm   3.2 km/h 97 % 0 mm
04:27 21.9 °C 21.4 °C 1010 hPa NW 1.6 km/h   97 % 0 mm
04:32 21.8 °C 21.3 °C 1010 hPa NW 1.6 km/h 1.6 km/h 97 % 0 mm
04:37 21.9 °C 21.4 °C 1010 hPa Calm   3.2 km/h 97 % 0 mm
04:42 21.9 °C 21.4 °C 1010 hPa Calm   3.2 km/h 97 % 0 mm
04:47 21.9 °C 21.4 °C 1010 hPa Calm   3.2 km/h 97 % 0 mm
04:52 21.8 °C 21.3 °C 1010 hPa Calm     97 % 0 mm
04:57 21.8 °C 21.3 °C 1010 hPa Calm     97 % 0 mm
05:02 21.8 °C 21.3 °C 1010 hPa Calm     97 % 0 mm
05:07 21.8 °C 21.3 °C 1010 hPa Calm     97 % 0 mm
05:12 21.7 °C 21.2 °C 1010 hPa Calm     97 % 0 mm
05:17 21.6 °C 21.1 °C 1010 hPa Calm     97 % 0 mm
05:22 21.6 °C 21.1 °C 1010 hPa Calm     97 % 0 mm
05:27 21.6 °C 21.1 °C 1010 hPa Calm     97 % 0 mm
05:32 21.6 °C 21.1 °C 1010 hPa Calm   1.6 km/h 97 % 0 mm
05:37 21.6 °C 21.1 °C 1010 hPa Calm   1.6 km/h 97 % 0 mm
05:42 21.6 °C 21.3 °C 1010 hPa Calm   1.6 km/h 98 % 0 mm
05:47 21.6 °C 21.1 °C 1010 hPa Calm     97 % 0 mm
05:49 21.6 °C 21.1 °C 1010 hPa Calm     97 % 0 mm
05:54 21.6 °C 21.1 °C 1010 hPa Calm     97 % 0 mm
05:59 21.5 °C 21 °C 1010 hPa Calm     97 % 0 mm
06:04 21.4 °C 20.9 °C 1010 hPa Calm     97 % 0 mm
06:09 21.4 °C 21.1 °C 1010 hPa Calm     98 % 0 mm
06:14 21.4 °C 21.1 °C 1010 hPa Calm   1.6 km/h 98 % 0 mm
06:19 21.5 °C 21.2 °C 1010.4 hPa Calm   1.6 km/h 98 % 0 mm
06:24 21.5 °C 21.2 °C 1010.4 hPa NNW 1.6 km/h 1.6 km/h 98 % 0 mm
06:29 21.6 °C 21.3 °C 1010.4 hPa Calm   3.2 km/h 98 % 0 mm
06:34 21.6 °C 21.3 °C 1010.4 hPa Calm   3.2 km/h 98 % 0 mm
06:39 21.5 °C 21.2 °C 1010.4 hPa Calm   3.2 km/h 98 % 0 mm
06:44 21.5 °C 21.2 °C 1010.4 hPa Calm   3.2 km/h 98 % 0 mm
06:49 21.6 °C 21.3 °C 1010.4 hPa Calm   1.6 km/h 98 % 0 mm
06:54 21.7 °C 21.4 °C 1010.4 hPa Calm   1.6 km/h 98 % 0 mm
06:59 21.7 °C 21.4 °C 1010.4 hPa NNW 1.6 km/h 1.6 km/h 98 % 0 mm
07:04 22 °C 21.7 °C 1010.7 hPa NW 1.6 km/h 1.6 km/h 98 % 0 mm
07:09 22.2 °C 21.9 °C 1010.7 hPa Calm   3.2 km/h 98 % 0 mm
07:15 22.4 °C 22.1 °C 1010.7 hPa NW 3.2 km/h 3.2 km/h 98 % 0 mm
07:20 22.6 °C 22.1 °C 1010.7 hPa NNW 1.6 km/h 3.2 km/h 97 % 0 mm
07:25 22.7 °C 22.2 °C 1010.7 hPa NNW 3.2 km/h 4.8 km/h 97 % 0 mm
07:30 22.8 °C 22.3 °C 1010.7 hPa NW 6.4 km/h 6.4 km/h 97 % 0 mm
07:35 22.9 °C 22.2 °C 1010.7 hPa NNW 6.4 km/h 6.4 km/h 96 % 0 mm
07:40 23.1 °C 22.4 °C 1011.1 hPa North 3.2 km/h 6.4 km/h 96 % 0 mm
07:50 23.5 °C 22.7 °C 1011.1 hPa Calm   6.4 km/h 95 % 0 mm
07:55 23.8 °C 22.9 °C 1011.1 hPa NNW 1.6 km/h 6.4 km/h 95 % 0 mm
08:00 24.1 °C 22.9 °C 1011.1 hPa NW 3.2 km/h 6.4 km/h 93 % 0 mm
08:05 24.3 °C 23.1 °C 1011.1 hPa NNW 3.2 km/h 6.4 km/h 93 % 0 mm
08:10 24.7 °C 23.3 °C 1011.1 hPa Calm   6.4 km/h 92 % 0 mm
08:15 25.1 °C 23.5 °C 1011.4 hPa WNW 4.8 km/h 6.4 km/h 91 % 0 mm
08:20 25.3 °C 23.4 °C 1011.4 hPa NW 4.8 km/h 11.3 km/h 89 % 0 mm
08:25 25.7 °C 23.6 °C 1011.4 hPa Calm   11.3 km/h 88 % 0 mm
08:30 26 °C 23.7 °C 1011.7 hPa WNW 3.2 km/h 11.3 km/h 87 % 0 mm
08:35 26.2 °C 23.5 °C 1011.7 hPa NW 1.6 km/h 11.3 km/h 85 % 0 mm
08:40 26.4 °C 23.7 °C 1011.7 hPa NW 3.2 km/h 11.3 km/h 85 % 0 mm
08:45 26.6 °C 23.7 °C 1011.7 hPa West 3.2 km/h 8 km/h 84 % 0 mm
08:50 26.8 °C 23.7 °C 1011.7 hPa NNE 6.4 km/h 9.7 km/h 83 % 0 mm
08:55 26.9 °C 23.6 °C 1011.7 hPa NW 3.2 km/h 14.5 km/h 82 % 0 mm
09:00 26.9 °C 23.4 °C 1012.1 hPa ENE 1.6 km/h 14.5 km/h 81 % 0 mm
09:05 27 °C 23.3 °C 1011.7 hPa ENE 3.2 km/h 14.5 km/h 80 % 0 mm
09:11 27.2 °C 23.4 °C 1011.7 hPa ENE 3.2 km/h 11.3 km/h 80 % 0 mm
09:16 27.3 °C 23.5 °C 1011.7 hPa WNW 1.6 km/h 11.3 km/h 80 % 0 mm
09:21 27.4 °C 23.6 °C 1012.1 hPa NW 6.4 km/h 9.7 km/h 80 % 0 mm
09:26 27.5 °C 23.7 °C 1012.1 hPa NNW 4.8 km/h 14.5 km/h 80 % 0 mm
09:31 27.7 °C 23.7 °C 1012.1 hPa NNW 1.6 km/h 14.5 km/h 79 % 0 mm
09:36 27.8 °C 23.6 °C 1011.7 hPa North 1.6 km/h 14.5 km/h 78 % 0 mm
09:41 28 °C 23.8 °C 1011.7 hPa WNW 8 km/h 12.9 km/h 78 % 0 mm
09:46 28.1 °C 23.7 °C 1011.7 hPa NW 4.8 km/h 12.9 km/h 77 % 0 mm
09:51 28.1 °C 23.2 °C 1012.1 hPa NNW 1.6 km/h 11.3 km/h 75 % 0 mm
09:56 28.2 °C 23.1 °C 1012.1 hPa NE 6.4 km/h 11.3 km/h 74 % 0 mm
10:01 28.3 °C 23.2 °C 1012.1 hPa NW 3.2 km/h 11.3 km/h 74 % 0 mm
10:06 28.6 °C 23.3 °C 1012.1 hPa NW 3.2 km/h 11.3 km/h 73 % 0 mm
10:11 28.7 °C 23.4 °C 1012.1 hPa NNW 3.2 km/h 11.3 km/h 73 % 0 mm
10:16 28.9 °C 23.3 °C 1012.1 hPa North 3.2 km/h 11.3 km/h 72 % 0 mm
10:21 28.9 °C 23.3 °C 1012.1 hPa ENE 1.6 km/h 14.5 km/h 72 % 0 mm
10:26 28.9 °C 23.3 °C 1012.1 hPa NNW 6.4 km/h 14.5 km/h 72 % 0 mm
10:31 28.9 °C 23.3 °C 1012.1 hPa NNW 8 km/h 14.5 km/h 72 % 0 mm
10:36 29 °C 23 °C 1012.1 hPa NE 4.8 km/h 14.5 km/h 70 % 0 mm
10:41 29.1 °C 23.1 °C 1012.1 hPa East 6.4 km/h 12.9 km/h 70 % 0 mm
10:46 29.1 °C 23.3 °C 1012.1 hPa East 6.4 km/h 12.9 km/h 71 % 0 mm
10:51 29.1 °C 23.8 °C 1012.1 hPa NW 3.2 km/h 12.9 km/h 73 % 0 mm
10:56 29.5 °C 23.4 °C 1012.1 hPa NE 6.4 km/h 12.9 km/h 70 % 0 mm
11:01 29.5 °C 23.4 °C 1012.1 hPa NW 1.6 km/h 9.7 km/h 70 % 0 mm
11:06 29.4 °C 23.4 °C 1012.1 hPa SE 3.2 km/h 9.7 km/h 70 % 0 mm
11:11 29.6 °C 23.8 °C 1012.1 hPa NNW 4.8 km/h 9.7 km/h 71 % 0 mm
11:16 29.8 °C 23.7 °C 1012.1 hPa East 1.6 km/h 9.7 km/h 70 % 0 mm
11:21 30.1 °C 23.8 °C 1012.1 hPa ESE 1.6 km/h 9.7 km/h 69 % 0 mm
11:26 30.1 °C 23.8 °C 1012.1 hPa NW 1.6 km/h 9.7 km/h 69 % 0 mm
11:31 30.1 °C 23.3 °C 1012.1 hPa NNW 6.4 km/h 8 km/h 67 % 0 mm
11:36 30.2 °C 23.4 °C 1012.1 hPa North 8 km/h 11.3 km/h 67 % 0 mm
11:41 30.2 °C 22.9 °C 1012.1 hPa NNE 1.6 km/h 12.9 km/h 65 % 0 mm
11:46 30.3 °C 23 °C 1012.1 hPa ENE 6.4 km/h 12.9 km/h 65 % 0 mm
11:51 30.4 °C 23.3 °C 1012.1 hPa NW 4.8 km/h 14.5 km/h 66 % 0 mm
11:56 30.7 °C 23.6 °C 1012.1 hPa East 6.4 km/h 14.5 km/h 66 % 0 mm
12:01 30.8 °C 23.5 °C 1012.1 hPa NW 4.8 km/h 14.5 km/h 65 % 0 mm
12:06 30.9 °C 23.5 °C 1012.1 hPa North 8 km/h 11.3 km/h 65 % 0 mm
12:11 31 °C 23.1 °C 1012.1 hPa North 6.4 km/h 14.5 km/h 63 % 0 mm
12:16 31.1 °C 22.7 °C 1012.1 hPa NNW 4.8 km/h 14.5 km/h 61 % 0 mm
12:21 31.2 °C 22.5 °C 1012.1 hPa SW 1.6 km/h 14.5 km/h 60 % 0 mm
12:26 31.3 °C 22.9 °C 1012.1 hPa West 9.7 km/h 12.9 km/h 61 % 0 mm
12:31 31.3 °C 23.4 °C 1012.1 hPa NE 3.2 km/h 12.9 km/h 63 % 0 mm
12:36 31.4 °C 22.1 °C 1012.1 hPa NW 1.6 km/h 12.9 km/h 58 % 0 mm
12:41 31.3 °C 22.3 °C 1012.1 hPa West 4.8 km/h 12.9 km/h 59 % 0 mm
12:46 31.4 °C 23 °C 1012.1 hPa NNW 6.4 km/h 17.7 km/h 61 % 0 mm
12:51 31.6 °C 22 °C 1012.1 hPa East 4.8 km/h 17.7 km/h 57 % 0 mm
12:56 31.7 °C 22.4 °C 1012.1 hPa ENE 6.4 km/h 17.7 km/h 58 % 0 mm
13:01 31.7 °C 22.1 °C 1012.1 hPa NW 11.3 km/h 16.1 km/h 57 % 0 mm
13:06 31.7 °C 21.2 °C 1012.1 hPa NE 3.2 km/h 14.5 km/h 54 % 0 mm
13:11 31.5 °C 21.7 °C 1012.1 hPa NNW 3.2 km/h 19.3 km/h 56 % 0 mm
13:16 31.6 °C 22.3 °C 1012.1 hPa NW 3.2 km/h 20.9 km/h 58 % 0 mm
13:21 31.8 °C 21 °C 1011.7 hPa WNW 4.8 km/h 20.9 km/h 53 % 0 mm
13:26 32 °C 21.5 °C 1011.7 hPa North 4.8 km/h 20.9 km/h 54 % 0 mm
13:31 32 °C 21.2 °C 1011.7 hPa NNE 4.8 km/h 17.7 km/h 53 % 0 mm
13:36 32.1 °C 21.3 °C 1011.7 hPa NW 6.4 km/h 17.7 km/h 53 % 0 mm
13:41 32.3 °C 21.2 °C 1011.7 hPa NE 6.4 km/h 12.9 km/h 52 % 0 mm
13:46 32.4 °C 20.6 °C 1012.1 hPa ENE 3.2 km/h 17.7 km/h 50 % 0 mm
13:52 32.7 °C 20.3 °C 1011.7 hPa North 14.5 km/h 17.7 km/h 48 % 0 mm
13:57 32.7 °C 20.9 °C 1011.7 hPa North 8 km/h 17.7 km/h 50 % 0 mm
14:02 32.8 °C 20.7 °C 1011.7 hPa NW 6.4 km/h 16.1 km/h 49 % 0 mm
14:07 32.5 °C 20.7 °C 1011.7 hPa NW 8 km/h 16.1 km/h 50 % 0 mm
14:12 32.2 °C 20.1 °C 1011.7 hPa Calm   19.3 km/h 49 % 0 mm
14:17 32.2 °C 20.5 °C 1011.7 hPa NW 8 km/h 19.3 km/h 50 % 0 mm
14:22 32.5 °C 20.4 °C 1011.7 hPa WNW 8 km/h 19.3 km/h 49 % 0 mm
14:27 32.5 °C 20.7 °C 1011.7 hPa North 3.2 km/h 22.5 km/h 50 % 0 mm
14:32 32.7 °C 20.6 °C 1011.7 hPa NNW 12.9 km/h 22.5 km/h 49 % 0 mm
14:37 32.8 °C 20.3 °C 1011.7 hPa NE 4.8 km/h 22.5 km/h 48 % 0 mm
14:42 32.3 °C 20.2 °C 1011.7 hPa WNW 4.8 km/h 16.1 km/h 49 % 0 mm
14:47 32.4 °C 21 °C 1011.7 hPa WNW 6.4 km/h 16.1 km/h 51 % 0 mm
14:52 32.5 °C 20.4 °C 1011.7 hPa NNW 6.4 km/h 20.9 km/h 49 % 0 mm
14:57 32.7 °C 19.6 °C 1011.7 hPa NNE 11.3 km/h 20.9 km/h 46 % 0 mm
15:02 32.9 °C 20.4 °C 1011.7 hPa North 16.1 km/h 20.9 km/h 48 % 0 mm
15:07 32.9 °C 20.1 °C 1011.7 hPa ENE 4.8 km/h 22.5 km/h 47 % 0 mm
15:12 32.8 °C 20 °C 1011.4 hPa WNW 4.8 km/h 22.5 km/h 47 % 0 mm
15:17 32.9 °C 20.1 °C 1011.4 hPa NW 4.8 km/h 22.5 km/h 47 % 0 mm
15:22 32.8 °C 20 °C 1011.4 hPa NW 6.4 km/h 12.9 km/h 47 % 0 mm
15:27 32.7 °C 20.6 °C 1011.4 hPa NNW 9.7 km/h 20.9 km/h 49 % 0 mm
15:32 32.6 °C 20.2 °C 1011.4 hPa NNW 8 km/h 20.9 km/h 48 % 0 mm
15:37 32.5 °C 20.1 °C 1011.4 hPa NNW 6.4 km/h 20.9 km/h 48 % 0 mm
15:42 32.3 °C 19.9 °C 1011.4 hPa NNW 8 km/h 19.3 km/h 48 % 0 mm
15:47 32.2 °C 20.1 °C 1011.4 hPa NNE 6.4 km/h 19.3 km/h 49 % 0 mm
15:48 32.2 °C 21.1 °C 1011.4 hPa NNW 6.4 km/h 19.3 km/h 52 % 0 mm
15:53 32.5 °C 21.1 °C 1011.1 hPa NW 6.4 km/h 12.9 km/h 51 % 0 mm
15:58 32.7 °C 20.6 °C 1011.1 hPa WNW 4.8 km/h 12.9 km/h 49 % 0 mm
16:03 32.9 °C 20.8 °C 1011.1 hPa West 6.4 km/h 12.9 km/h 49 % 0 mm
16:08 33.1 °C 20.3 °C 1011.1 hPa WNW 4.8 km/h 12.9 km/h 47 % 0 mm
16:13 33.2 °C 21 °C 1011.1 hPa NW 3.2 km/h 12.9 km/h 49 % 0 mm
16:18 33.3 °C 20.5 °C 1011.1 hPa NNW 3.2 km/h 12.9 km/h 47 % 0 mm
16:23 33.3 °C 20.5 °C 1011.1 hPa NNE 6.4 km/h 12.9 km/h 47 % 0 mm
16:29 33.1 °C 19.9 °C 1011.1 hPa NW 3.2 km/h 12.9 km/h 46 % 0 mm
16:34 32.9 °C 20.4 °C 1011.1 hPa ENE 4.8 km/h 12.9 km/h 48 % 0 mm
16:39 32.7 °C 20.3 °C 1010.7 hPa WNW 6.4 km/h 12.9 km/h 48 % 0 mm
16:44 32.7 °C 20.6 °C 1010.7 hPa NNW 3.2 km/h 12.9 km/h 49 % 0 mm
16:49 32.4 °C 20.6 °C 1010.7 hPa NW 6.4 km/h 9.7 km/h 50 % 0 mm
16:54 32.1 °C 21 °C 1010.7 hPa WSW 1.6 km/h 11.3 km/h 52 % 0 mm
16:59 32 °C 21.2 °C 1010.7 hPa NW 3.2 km/h 11.3 km/h 53 % 0 mm
17:04 31.9 °C 21.4 °C 1010.7 hPa NW 3.2 km/h 11.3 km/h 54 % 0 mm
17:09 31.9 °C 21.4 °C 1010.7 hPa East 4.8 km/h 9.7 km/h 54 % 0 mm
17:14 31.7 °C 20.9 °C 1010.7 hPa NNE 4.8 km/h 9.7 km/h 53 % 0 mm
17:19 31.5 °C 21.1 °C 1010.7 hPa NNE 4.8 km/h 12.9 km/h 54 % 0 mm
17:24 31.5 °C 21.7 °C 1010.7 hPa NW 3.2 km/h 12.9 km/h 56 % 0 mm
17:29 31.9 °C 21.7 °C 1010.7 hPa WNW 4.8 km/h 12.9 km/h 55 % 0 mm
17:34 32.2 °C 21.1 °C 1010.7 hPa NW 3.2 km/h 8 km/h 52 % 0 mm
17:39 32.4 °C 21 °C 1010.7 hPa NNW 3.2 km/h 9.7 km/h 51 % 0 mm
17:44 32.4 °C 21 °C 1010.7 hPa NW 8 km/h 14.5 km/h 51 % 0 mm
17:49 32.5 °C 20.4 °C 1010.7 hPa NW 4.8 km/h 14.5 km/h 49 % 0 mm
17:54 32.6 °C 20.8 °C 1010.7 hPa NNW 6.4 km/h 14.5 km/h 50 % 0 mm
17:59 32.6 °C 20.2 °C 1010.7 hPa WNW 8 km/h 12.9 km/h 48 % 0 mm
18:04 32.6 °C 20.5 °C 1010.7 hPa NW 4.8 km/h 14.5 km/h 49 % 0 mm
18:09 32.3 °C 20.5 °C 1010.7 hPa North 3.2 km/h 14.5 km/h 50 % 0 mm
18:14 31.9 °C 20.5 °C 1010.7 hPa North 4.8 km/h 14.5 km/h 51 % 0 mm
18:19 31.7 °C 20.9 °C 1010.7 hPa NNW 3.2 km/h 12.9 km/h 53 % 0 mm
18:24 31.6 °C 21.2 °C 1010.7 hPa NNW 3.2 km/h 12.9 km/h 54 % 0 mm
18:29 31.4 °C 21 °C 1010.4 hPa NNW 1.6 km/h 12.9 km/h 54 % 0 mm
18:34 31.7 °C 21.2 °C 1010.4 hPa NW 3.2 km/h 9.7 km/h 54 % 0 mm
18:39 31.8 °C 21.3 °C 1010.4 hPa NNW 4.8 km/h 9.7 km/h 54 % 0 mm
18:44 31.8 °C 21.3 °C 1010.4 hPa WNW 6.4 km/h 9.7 km/h 54 % 0 mm
18:49 31.3 °C 21.2 °C 1010.7 hPa NNE 1.6 km/h 9.7 km/h 55 % 0 mm
18:54 31 °C 21.2 °C 1010.4 hPa Calm   11.3 km/h 56 % 0 mm
18:59 30.8 °C 21.3 °C 1010.4 hPa Calm   11.3 km/h 57 % 0 mm
19:04 30.8 °C 21.6 °C 1010.4 hPa NNW 4.8 km/h 11.3 km/h 58 % 0 mm
19:09 31 °C 21.5 °C 1010.4 hPa NNE 1.6 km/h 9.7 km/h 57 % 0 mm
19:14 31.2 °C 22 °C 1010.7 hPa North 1.6 km/h 9.7 km/h 58 % 0 mm
19:19 31.3 °C 22 °C 1010.7 hPa NNW 1.6 km/h 4.8 km/h 58 % 0 mm
19:24 31.2 °C 22 °C 1010.7 hPa East 3.2 km/h 4.8 km/h 58 % 0 mm
19:29 31 °C 21.8 °C 1010.7 hPa NNE 1.6 km/h 8 km/h 58 % 0 mm
19:34 30.8 °C 21.9 °C 1010.7 hPa NW 1.6 km/h 9.7 km/h 59 % 0 mm
19:39 30.6 °C 21.7 °C 1010.7 hPa North 3.2 km/h 9.7 km/h 59 % 0 mm
19:44 30.4 °C 21.8 °C 1010.7 hPa North 1.6 km/h 9.7 km/h 60 % 0 mm
19:49 30.3 °C 21.7 °C 1010.7 hPa Calm   8 km/h 60 % 0 mm
19:54 30.2 °C 21.6 °C 1010.7 hPa NNW 6.4 km/h 8 km/h 60 % 0 mm
19:59 30.1 °C 21.7 °C 1010.7 hPa NNE 1.6 km/h 8 km/h 61 % 0 mm
20:04 29.9 °C 21.6 °C 1010.7 hPa NNE 1.6 km/h 8 km/h 61 % 0 mm
20:09 29.7 °C 21.6 °C 1011.1 hPa North 1.6 km/h 8 km/h 62 % 0 mm
20:14 29.6 °C 21.5 °C 1010.7 hPa Calm   6.4 km/h 62 % 0 mm
20:19 29.4 °C 21.6 °C 1010.7 hPa Calm   6.4 km/h 63 % 0 mm
20:24 29.2 °C 21.4 °C 1011.1 hPa Calm   6.4 km/h 63 % 0 mm
20:29 29.1 °C 21.6 °C 1011.1 hPa NE 1.6 km/h 3.2 km/h 64 % 0 mm
20:34 28.9 °C 21.4 °C 1011.1 hPa Calm   3.2 km/h 64 % 0 mm
20:35 28.9 °C 21.7 °C 1011.1 hPa Calm   1.6 km/h 65 % 0 mm
20:40 28.7 °C 21.5 °C 1011.1 hPa Calm   1.6 km/h 65 % 0 mm
20:45 28.6 °C 21.6 °C 1011.1 hPa Calm   1.6 km/h 66 % 0 mm
20:50 28.4 °C 21.4 °C 1011.1 hPa Calm   1.6 km/h 66 % 0 mm
20:55 28.3 °C 21.6 °C 1011.1 hPa North 1.6 km/h 1.6 km/h 67 % 0 mm
21:00 28.2 °C 21.5 °C 1011.1 hPa Calm   1.6 km/h 67 % 0 mm
21:05 28.1 °C 21.6 °C 1011.4 hPa Calm   1.6 km/h 68 % 0 mm
21:10 27.9 °C 21.4 °C 1011.4 hPa Calm   1.6 km/h 68 % 0 mm
21:15 27.8 °C 21.6 °C 1011.4 hPa Calm   1.6 km/h 69 % 0 mm
21:20 27.7 °C 21.5 °C 1011.4 hPa North 3.2 km/h 3.2 km/h 69 % 0 mm
21:25 27.6 °C 21.6 °C 1011.4 hPa Calm   3.2 km/h 70 % 0 mm
21:30 27.6 °C 21.4 °C 1011.4 hPa Calm   3.2 km/h 69 % 0 mm
21:35 27.6 °C 21.4 °C 1011.4 hPa North 3.2 km/h 3.2 km/h 69 % 0 mm
21:40 27.5 °C 21.3 °C 1011.4 hPa Calm   6.4 km/h 69 % 0 mm
21:45 27.4 °C 21.2 °C 1011.4 hPa Calm   6.4 km/h 69 % 0 mm
21:55 27.3 °C 21.1 °C 1011.7 hPa North 1.6 km/h 6.4 km/h 69 % 0 mm
22:00 27.2 °C 21 °C 1011.7 hPa NE 1.6 km/h 6.4 km/h 69 % 0 mm
22:05 27.2 °C 21.2 °C 1011.7 hPa NE 1.6 km/h 4.8 km/h 70 % 0 mm
22:10 27.1 °C 21.2 °C 1011.7 hPa Calm   4.8 km/h 70 % 0 mm
22:15 27 °C 21.3 °C 1011.7 hPa Calm   3.2 km/h 71 % 0 mm
22:20 26.9 °C 21.2 °C 1011.7 hPa Calm   3.2 km/h 71 % 0 mm
22:25 26.8 °C 21.3 °C 1011.7 hPa Calm   3.2 km/h 72 % 0 mm
22:30 26.7 °C 21.2 °C 1012.1 hPa NNW 1.6 km/h 1.6 km/h 72 % 0 mm
22:35 26.6 °C 21.4 °C 1012.1 hPa Calm   3.2 km/h 73 % 0 mm
22:40 26.5 °C 21.3 °C 1012.1 hPa Calm   3.2 km/h 73 % 0 mm
22:43 26.4 °C 21.2 °C 1012.1 hPa Calm   3.2 km/h 73 % 0 mm
22:48 26.4 °C 21.2 °C 1012.1 hPa Calm   3.2 km/h 73 % 0 mm
22:53 26.3 °C 21.3 °C 1012.1 hPa Calm   3.2 km/h 74 % 0 mm
22:58 26.2 °C 21.2 °C 1012.1 hPa Calm   3.2 km/h 74 % 0 mm
23:03 26.2 °C 21.2 °C 1012.1 hPa Calm   3.2 km/h 74 % 0 mm
23:08 26.2 °C 21 °C 1012.1 hPa North 1.6 km/h 4.8 km/h 73 % 0 mm
23:13 26.1 °C 20.9 °C 1012.1 hPa Calm   9.7 km/h 73 % 0 mm
23:19 26.1 °C 20.7 °C 1012.1 hPa Calm   9.7 km/h 72 % 0 mm
23:24 26.1 °C 20.7 °C 1012.4 hPa ENE 1.6 km/h 9.7 km/h 72 % 0 mm
23:29 26.1 °C 20.7 °C 1012.1 hPa ENE 1.6 km/h 6.4 km/h 72 % 0 mm
23:34 26 °C 20.6 °C 1012.1 hPa ENE 1.6 km/h 6.4 km/h 72 % 0 mm
23:39 25.9 °C 20.5 °C 1012.1 hPa Calm   6.4 km/h 72 % 0 mm
23:44 25.9 °C 20.5 °C 1012.4 hPa ENE 1.6 km/h 6.4 km/h 72 % 0 mm
23:49 25.8 °C 20.4 °C 1012.4 hPa Calm   4.8 km/h 72 % 0 mm
23:54 25.7 °C 20.3 °C 1012.4 hPa NE 4.8 km/h 4.8 km/h 72 % 0 mm
23:59 25.7 °C 20.3 °C 1012.4 hPa North 1.6 km/h 9.7 km/h 72 % 0 mm
Spring, Texas: Villages of Bridgestone
Compliments of Weather Underground - 2.75 mb

Script developed by  Jim McMurry - jmcmurry@mwt.net Adapted for the template by  Wim van der Kuil - Leuven-Template.eu

You find our weather info also at:

UK Metoffice

WeatherCloud

Weather Underground

Mid-South Weather Network

AWEKAS

Citizen Weather Observer Program (CWOP)

HAMweather, WeatherForYou, PWS Weather

Equipment we use:

Weather-station
Davis Vantage Vue

Weather-program
Meteohub

Weather-server
Debian 7.9 x86 (Guest)

Provider
DreamHost

Davis Vantage Vue

Meteohub

Debian 7.9 x86 (Guest)

DreamHost